Wetterdaten: Freitag, 05.03.2010
Datum Zeit Temp. I. Temp. A. Boden 5 cm Feuchte A. Sonne Luftdruck Regen Wind
05.03.2010 00:01 22,2 C 0,1 C -0,3 C 67 % 0 % 1010 hPa 0,0 l/m 10,3 km/h (2 Bft)
05.03.2010 00:04 22,2 C 0,0 C -0,1 C 67 % 0 % 1010 hPa 0,0 l/m 10,3 km/h (2 Bft)
05.03.2010 00:07 22,2 C 0,0 C -0,1 C 68 % 0 % 1010 hPa 0,0 l/m 11,0 km/h (2 Bft)
05.03.2010 00:10 22,3 C 0,0 C -0,3 C 68 % 0 % 1010 hPa 0,0 l/m 14,7 km/h (3 Bft)
05.03.2010 00:13 22,3 C 0,0 C -0,1 C 68 % 0 % 1010 hPa 0,0 l/m 3,6 km/h (1 Bft)
05.03.2010 00:16 22,3 C 0,0 C -0,1 C 68 % 0 % 1010 hPa 0,0 l/m 2,8 km/h (1 Bft)
05.03.2010 00:19 22,3 C 0,0 C -0,1 C 68 % 0 % 1010 hPa 0,0 l/m 2,7 km/h (1 Bft)
05.03.2010 00:22 22,3 C 0,0 C -0,2 C 68 % 0 % 1010 hPa 0,0 l/m 0,4 km/h (0 Bft)
05.03.2010 00:25 22,3 C 0,0 C -0,2 C 68 % 0 % 1010 hPa 0,0 l/m 0,9 km/h (0 Bft)
05.03.2010 00:28 22,3 C 0,0 C -0,3 C 68 % 0 % 1010 hPa 0,0 l/m 5,0 km/h (1 Bft)
05.03.2010 00:31 22,3 C -0,2 C -0,5 C 68 % 0 % 1010 hPa 0,0 l/m 0,6 km/h (0 Bft)
05.03.2010 00:34 22,3 C -0,2 C -0,8 C 68 % 0 % 1010 hPa 0,0 l/m 1,6 km/h (1 Bft)
05.03.2010 00:37 22,3 C -0,2 C -1,0 C 67 % 0 % 1011 hPa 0,0 l/m 6,5 km/h (2 Bft)
05.03.2010 00:40 22,3 C -0,3 C -1,2 C 67 % 0 % 1010 hPa 0,0 l/m 1,4 km/h (1 Bft)
05.03.2010 00:43 22,3 C -0,4 C -1,3 C 66 % 0 % 1011 hPa 0,0 l/m 9,8 km/h (2 Bft)
05.03.2010 00:46 22,3 C -0,4 C -1,5 C 67 % 0 % 1011 hPa 0,0 l/m 6,4 km/h (2 Bft)
05.03.2010 00:49 22,3 C -0,5 C -1,7 C 66 % 0 % 1011 hPa 0,0 l/m 11,1 km/h (2 Bft)
05.03.2010 00:52 22,3 C -0,6 C -1,8 C 66 % 0 % 1011 hPa 0,0 l/m 9,9 km/h (2 Bft)
05.03.2010 00:55 22,3 C -0,6 C -1,9 C 67 % 0 % 1011 hPa 0,0 l/m 10,7 km/h (2 Bft)
05.03.2010 00:58 22,3 C -0,7 C -1,9 C 66 % 0 % 1011 hPa 0,0 l/m 1,3 km/h (1 Bft)
05.03.2010 01:01 22,3 C -0,7 C -2,1 C 66 % 0 % 1011 hPa 0,0 l/m 6,3 km/h (2 Bft)
05.03.2010 01:04 22,3 C -0,8 C -2,0 C 67 % 0 % 1011 hPa 0,0 l/m 11,4 km/h (2 Bft)
05.03.2010 01:07 22,3 C -0,8 C -2,1 C 69 % 0 % 1011 hPa 0,0 l/m 14,1 km/h (3 Bft)
05.03.2010 01:10 22,3 C -0,9 C -2,1 C 70 % 0 % 1011 hPa 0,0 l/m 12,8 km/h (3 Bft)
05.03.2010 01:13 22,3 C -1,0 C -2,1 C 70 % 0 % 1011 hPa 0,0 l/m 14,2 km/h (3 Bft)
05.03.2010 01:16 22,3 C -1,0 C -2,1 C 71 % 0 % 1011 hPa 0,0 l/m 9,1 km/h (2 Bft)
05.03.2010 01:19 22,3 C -1,0 C -2,2 C 71 % 0 % 1011 hPa 0,0 l/m 5,4 km/h (1 Bft)
05.03.2010 01:22 22,3 C -1,1 C -2,2 C 71 % 0 % 1011 hPa 0,0 l/m 11,4 km/h (2 Bft)
05.03.2010 01:25 22,2 C -1,2 C -2,3 C 71 % 0 % 1011 hPa 0,0 l/m 10,5 km/h (2 Bft)
05.03.2010 01:28 22,3 C -1,2 C -2,3 C 71 % 0 % 1011 hPa 0,0 l/m 7,8 km/h (2 Bft)
05.03.2010 01:31 22,2 C -1,3 C -2,4 C 72 % 0 % 1011 hPa 0,0 l/m 7,9 km/h (2 Bft)
05.03.2010 01:34 22,1 C -1,4 C -2,5 C 71 % 0 % 1011 hPa 0,0 l/m 10,8 km/h (2 Bft)
05.03.2010 01:37 22,0 C -1,4 C -2,4 C 71 % 0 % 1011 hPa 0,0 l/m 8,5 km/h (2 Bft)
05.03.2010 01:40 22,0 C -1,4 C -2,5 C 72 % 0 % 1011 hPa 0,0 l/m 7,9 km/h (2 Bft)
05.03.2010 01:43 22,0 C -1,5 C -2,6 C 72 % 0 % 1011 hPa 0,0 l/m 11,2 km/h (2 Bft)
05.03.2010 01:46 22,0 C -1,5 C -2,7 C 72 % 0 % 1011 hPa 0,0 l/m 11,0 km/h (2 Bft)
05.03.2010 01:49 22,0 C -1,6 C -2,6 C 73 % 0 % 1011 hPa 0,0 l/m 11,0 km/h (2 Bft)
05.03.2010 01:52 22,1 C -1,6 C -2,7 C 73 % 0 % 1011 hPa 0,0 l/m 10,8 km/h (2 Bft)
05.03.2010 01:55 22,1 C -1,7 C -2,7 C 72 % 0 % 1011 hPa 0,0 l/m 10,8 km/h (2 Bft)
05.03.2010 01:58 22,1 C -1,7 C -2,7 C 71 % 0 % 1011 hPa 0,0 l/m 13,3 km/h (3 Bft)
05.03.2010 02:01 22,2 C -1,8 C -2,6 C 72 % 0 % 1011 hPa 0,0 l/m 15,6 km/h (3 Bft)
05.03.2010 02:04 22,2 C -1,8 C -2,7 C 71 % 0 % 1011 hPa 0,0 l/m 11,7 km/h (2 Bft)
05.03.2010 02:07 22,2 C -1,8 C -2,7 C 71 % 0 % 1011 hPa 0,0 l/m 12,5 km/h (3 Bft)
05.03.2010 02:10 22,2 C -1,8 C -2,8 C 71 % 0 % 1011 hPa 0,0 l/m 10,8 km/h (2 Bft)
05.03.2010 02:13 22,2 C -1,8 C -2,8 C 71 % 0 % 1011 hPa 0,0 l/m 10,3 km/h (2 Bft)
05.03.2010 02:16 22,2 C -1,9 C -2,8 C 71 % 0 % 1011 hPa 0,0 l/m 9,8 km/h (2 Bft)
05.03.2010 02:19 22,2 C -1,9 C -2,9 C 71 % 0 % 1011 hPa 0,0 l/m 9,2 km/h (2 Bft)
05.03.2010 02:22 22,2 C -1,9 C -2,9 C 71 % 0 % 1011 hPa 0,0 l/m 11,8 km/h (2 Bft)
05.03.2010 02:25 22,3 C -1,9 C -2,9 C 71 % 0 % 1011 hPa 0,0 l/m 10,0 km/h (2 Bft)
05.03.2010 02:28 22,3 C -1,9 C -2,9 C 71 % 0 % 1011 hPa 0,0 l/m 10,0 km/h (2 Bft)
05.03.2010 02:31 22,2 C -1,9 C -2,9 C 72 % 0 % 1011 hPa 0,0 l/m 12,1 km/h (2 Bft)
05.03.2010 02:34 22,2 C -1,9 C -2,8 C 72 % 0 % 1011 hPa 0,0 l/m 9,4 km/h (2 Bft)
05.03.2010 02:37 22,2 C -1,9 C -2,9 C 72 % 0 % 1011 hPa 0,0 l/m 10,5 km/h (2 Bft)
05.03.2010 02:40 22,2 C -2,0 C -2,9 C 72 % 0 % 1011 hPa 0,0 l/m 13,0 km/h (3 Bft)
05.03.2010 02:43 22,2 C -2,0 C -2,9 C 72 % 0 % 1011 hPa 0,0 l/m 14,8 km/h (3 Bft)
05.03.2010 02:46 22,2 C -2,0 C -3,0 C 72 % 0 % 1011 hPa 0,0 l/m 7,1 km/h (2 Bft)
05.03.2010 02:49 22,2 C -2,1 C -3,0 C 73 % 0 % 1011 hPa 0,0 l/m 9,8 km/h (2 Bft)
05.03.2010 02:52 22,3 C -2,1 C -2,9 C 72 % 0 % 1011 hPa 0,0 l/m 14,9 km/h (3 Bft)
05.03.2010 02:55 22,3 C -2,1 C -3,0 C 72 % 0 % 1011 hPa 0,0 l/m 13,3 km/h (3 Bft)
05.03.2010 02:58 22,3 C -2,1 C -2,9 C 72 % 0 % 1011 hPa 0,0 l/m 18,3 km/h (3 Bft)
05.03.2010 03:01 22,3 C -2,1 C -2,9 C 72 % 0 % 1011 hPa 0,0 l/m 18,3 km/h (3 Bft)
05.03.2010 03:04 22,3 C -2,1 C -3,0 C 72 % 0 % 1011 hPa 0,0 l/m 18,3 km/h (3 Bft)
05.03.2010 03:07 22,3 C -2,1 C -2,9 C 72 % 0 % 1011 hPa 0,0 l/m 12,9 km/h (3 Bft)
05.03.2010 03:10 22,3 C -2,2 C -3,0 C 72 % 0 % 1011 hPa 0,0 l/m 16,5 km/h (3 Bft)
05.03.2010 03:13 22,3 C -2,2 C -3,0 C 72 % 0 % 1011 hPa 0,0 l/m 14,0 km/h (3 Bft)
05.03.2010 03:16 22,3 C -2,2 C -2,9 C 72 % 0 % 1011 hPa 0,0 l/m 14,5 km/h (3 Bft)
05.03.2010 03:19 22,3 C -2,2 C -3,0 C 73 % 0 % 1011 hPa 0,0 l/m 14,6 km/h (3 Bft)
05.03.2010 03:22 22,3 C -2,2 C -3,0 C 73 % 0 % 1011 hPa 0,0 l/m 12,0 km/h (2 Bft)
05.03.2010 03:25 22,2 C -2,2 C -3,1 C 73 % 0 % 1011 hPa 0,0 l/m 13,5 km/h (3 Bft)
05.03.2010 03:28 22,2 C -2,2 C -3,0 C 73 % 0 % 1011 hPa 0,0 l/m 10,1 km/h (2 Bft)
05.03.2010 03:31 22,2 C -2,3 C -3,0 C 74 % 0 % 1011 hPa 0,0 l/m 14,5 km/h (3 Bft)
05.03.2010 03:34 22,2 C -2,3 C -2,9 C 74 % 0 % 1011 hPa 0,0 l/m 13,3 km/h (3 Bft)
05.03.2010 03:37 22,2 C -2,3 C -3,0 C 74 % 0 % 1011 hPa 0,0 l/m 12,3 km/h (3 Bft)
05.03.2010 03:40 22,2 C -2,3 C -3,0 C 74 % 0 % 1011 hPa 0,0 l/m 12,6 km/h (3 Bft)
05.03.2010 03:43 22,2 C -2,3 C -3,1 C 74 % 0 % 1011 hPa 0,0 l/m 12,6 km/h (3 Bft)
05.03.2010 03:46 22,2 C -2,3 C -3,1 C 74 % 0 % 1011 hPa 0,0 l/m 11,3 km/h (2 Bft)
05.03.2010 03:49 22,2 C -2,4 C -3,1 C 75 % 0 % 1011 hPa 0,0 l/m 11,3 km/h (2 Bft)
05.03.2010 03:52 22,3 C -2,4 C -3,1 C 75 % 0 % 1011 hPa 0,0 l/m 11,5 km/h (2 Bft)
05.03.2010 03:55 22,2 C -2,4 C -3,1 C 75 % 0 % 1011 hPa 0,0 l/m 10,1 km/h (2 Bft)
05.03.2010 03:58 22,2 C -2,4 C -3,2 C 75 % 0 % 1011 hPa 0,0 l/m 13,8 km/h (3 Bft)
05.03.2010 04:01 22,2 C -2,4 C -3,1 C 75 % 0 % 1011 hPa 0,0 l/m 13,7 km/h (3 Bft)
05.03.2010 04:04 22,2 C -2,4 C -3,1 C 75 % 0 % 1011 hPa 0,0 l/m 15,2 km/h (3 Bft)
05.03.2010 04:07 22,2 C -2,5 C -2,8 C 76 % 0 % 1011 hPa 0,0 l/m 15,3 km/h (3 Bft)
05.03.2010 04:10 22,3 C -2,4 C -2,6 C 76 % 0 % 1011 hPa 0,0 l/m 14,3 km/h (3 Bft)
05.03.2010 04:13 22,3 C -2,4 C -2,5 C 76 % 0 % 1011 hPa 0,0 l/m 11,7 km/h (2 Bft)
05.03.2010 04:16 22,3 C -2,3 C -2,4 C 76 % 0 % 1011 hPa 0,0 l/m 15,1 km/h (3 Bft)
05.03.2010 04:19 22,3 C -2,3 C -2,4 C 76 % 0 % 1011 hPa 0,0 l/m 16,3 km/h (3 Bft)
05.03.2010 04:22 22,3 C -2,3 C -2,4 C 76 % 0 % 1011 hPa 0,0 l/m 14,3 km/h (3 Bft)
05.03.2010 04:25 22,3 C -2,2 C -2,4 C 76 % 0 % 1011 hPa 0,0 l/m 19,0 km/h (3 Bft)
05.03.2010 04:28 22,2 C -2,2 C -2,4 C 76 % 0 % 1011 hPa 0,0 l/m 14,6 km/h (3 Bft)
05.03.2010 04:31 22,3 C -2,2 C -2,4 C 76 % 0 % 1011 hPa 0,0 l/m 11,4 km/h (2 Bft)
05.03.2010 04:34 22,2 C -2,2 C -2,4 C 75 % 0 % 1011 hPa 0,0 l/m 14,6 km/h (3 Bft)
05.03.2010 04:37 22,3 C -2,2 C -2,4 C 76 % 0 % 1011 hPa 0,0 l/m 14,2 km/h (3 Bft)
05.03.2010 04:40 22,2 C -2,2 C -2,4 C 76 % 0 % 1011 hPa 0,0 l/m 11,0 km/h (2 Bft)
05.03.2010 04:43 22,2 C -2,2 C -2,3 C 76 % 0 % 1012 hPa 0,0 l/m 14,0 km/h (3 Bft)
05.03.2010 04:46 22,2 C -2,2 C -2,3 C 76 % 0 % 1012 hPa 0,0 l/m 9,7 km/h (2 Bft)
05.03.2010 04:49 22,2 C -2,2 C -2,3 C 76 % 0 % 1012 hPa 0,0 l/m 6,9 km/h (2 Bft)
05.03.2010 04:52 22,2 C -2,2 C -2,4 C 76 % 0 % 1012 hPa 0,0 l/m 2,1 km/h (1 Bft)
05.03.2010 04:56 22,2 C -2,2 C -2,4 C 77 % 0 % 1012 hPa 0,0 l/m 11,5 km/h (2 Bft)
05.03.2010 04:59 22,2 C -2,2 C -2,5 C 77 % 0 % 1012 hPa 0,0 l/m 8,4 km/h (2 Bft)
05.03.2010 05:02 22,2 C -2,2 C -2,5 C 77 % 0 % 1012 hPa 0,0 l/m 8,9 km/h (2 Bft)
05.03.2010 05:05 22,2 C -2,2 C -2,5 C 77 % 0 % 1012 hPa 0,0 l/m 8,9 km/h (2 Bft)
05.03.2010 05:08 22,2 C -2,2 C -2,5 C 77 % 0 % 1012 hPa 0,0 l/m 8,9 km/h (2 Bft)
05.03.2010 05:11 22,2 C -2,2 C -2,4 C 77 % 0 % 1012 hPa 0,0 l/m 8,9 km/h (2 Bft)
05.03.2010 05:14 22,2 C -2,2 C -2,6 C 77 % 0 % 1012 hPa 0,0 l/m 8,9 km/h (2 Bft)
05.03.2010 05:17 22,2 C -2,2 C -2,5 C 77 % 0 % 1012 hPa 0,0 l/m 8,9 km/h (2 Bft)
05.03.2010 05:20 22,2 C -2,2 C -2,6 C 73 % 0 % 1012 hPa 0,0 l/m 0,0 km/h (0 Bft)
05.03.2010 05:23 22,2 C -2,2 C -2,5 C 73 % 0 % 1012 hPa 0,0 l/m 0,0 km/h (0 Bft)
05.03.2010 05:26 22,2 C -2,3 C -2,5 C 70 % 0 % 1012 hPa 0,0 l/m 0,3 km/h (0 Bft)
05.03.2010 05:29 22,2 C -2,3 C -2,6 C 68 % 0 % 1012 hPa 0,0 l/m 1,5 km/h (1 Bft)
05.03.2010 05:32 22,2 C -2,4 C -2,7 C 68 % 0 % 1012 hPa 0,0 l/m 11,1 km/h (2 Bft)
05.03.2010 05:35 22,2 C -2,4 C -2,5 C 69 % 0 % 1012 hPa 0,0 l/m 4,8 km/h (1 Bft)
05.03.2010 05:38 22,2 C -2,4 C -2,5 C 69 % 0 % 1012 hPa 0,0 l/m 6,6 km/h (2 Bft)
05.03.2010 05:41 22,2 C -2,4 C -2,4 C 70 % 0 % 1012 hPa 0,0 l/m 11,4 km/h (2 Bft)
05.03.2010 05:44 22,2 C -2,4 C -2,3 C 70 % 0 % 1012 hPa 0,0 l/m 3,7 km/h (1 Bft)
05.03.2010 05:47 22,3 C -2,4 C -2,3 C 70 % 0 % 1012 hPa 0,0 l/m 3,7 km/h (1 Bft)
05.03.2010 05:50 22,2 C -2,4 C -2,4 C 70 % 0 % 1012 hPa 0,0 l/m 10,5 km/h (2 Bft)
05.03.2010 05:53 22,3 C -2,4 C -2,4 C 69 % 0 % 1012 hPa 0,0 l/m 3,1 km/h (1 Bft)
05.03.2010 05:56 22,3 C -2,4 C -2,5 C 69 % 0 % 1012 hPa 0,0 l/m 9,4 km/h (2 Bft)
05.03.2010 05:59 22,3 C -2,4 C -2,5 C 69 % 0 % 1012 hPa 0,0 l/m 10,6 km/h (2 Bft)
05.03.2010 06:02 22,3 C -2,4 C -2,5 C 69 % 0 % 1012 hPa 0,0 l/m 9,1 km/h (2 Bft)
05.03.2010 06:05 22,2 C -2,5 C -2,5 C 71 % 0 % 1012 hPa 0,0 l/m 10,8 km/h (2 Bft)
05.03.2010 06:08 22,2 C -2,5 C -2,6 C 70 % 0 % 1012 hPa 0,0 l/m 11,9 km/h (2 Bft)
05.03.2010 06:11 22,2 C -2,5 C -2,8 C 70 % 0 % 1012 hPa 0,0 l/m 12,3 km/h (3 Bft)
05.03.2010 06:14 22,2 C -2,5 C -2,9 C 71 % 0 % 1012 hPa 0,0 l/m 12,2 km/h (2 Bft)
05.03.2010 06:17 22,3 C -2,6 C -3,0 C 70 % 0 % 1012 hPa 0,0 l/m 12,2 km/h (2 Bft)
05.03.2010 06:20 22,2 C -2,6 C -3,0 C 70 % 0 % 1012 hPa 0,0 l/m 17,9 km/h (3 Bft)
05.03.2010 06:23 22,2 C -2,7 C -3,1 C 70 % 0 % 1012 hPa 0,0 l/m 13,3 km/h (3 Bft)
05.03.2010 06:26 22,3 C -2,7 C -3,2 C 70 % 0 % 1012 hPa 0,0 l/m 12,9 km/h (3 Bft)
05.03.2010 06:29 22,3 C -2,7 C -3,4 C 69 % 0 % 1012 hPa 0,0 l/m 16,2 km/h (3 Bft)
05.03.2010 06:32 22,3 C -2,8 C -3,5 C 69 % 0 % 1012 hPa 0,0 l/m 13,7 km/h (3 Bft)
05.03.2010 06:35 22,3 C -2,8 C -3,6 C 70 % 0 % 1012 hPa 0,0 l/m 12,0 km/h (2 Bft)
05.03.2010 06:38 22,3 C -2,9 C -3,6 C 71 % 0 % 1012 hPa 0,0 l/m 12,2 km/h (2 Bft)
05.03.2010 06:41 22,3 C -3,0 C -3,7 C 71 % 0 % 1012 hPa 0,0 l/m 11,0 km/h (2 Bft)
05.03.2010 06:44 22,3 C -3,0 C -3,6 C 71 % 0 % 1012 hPa 0,0 l/m 13,8 km/h (3 Bft)
05.03.2010 06:47 22,4 C -3,0 C -3,6 C 72 % 0 % 1012 hPa 0,0 l/m 10,3 km/h (2 Bft)
05.03.2010 06:50 22,4 C -3,0 C -3,6 C 72 % 0 % 1012 hPa 0,0 l/m 8,5 km/h (2 Bft)
05.03.2010 06:53 22,4 C -3,0 C -3,6 C 73 % 0 % 1012 hPa 0,0 l/m 5,8 km/h (2 Bft)
05.03.2010 06:56 22,4 C -3,0 C -3,3 C 74 % 0 % 1012 hPa 0,0 l/m 11,2 km/h (2 Bft)
05.03.2010 06:59 22,4 C -3,0 C -3,1 C 75 % 0 % 1012 hPa 0,0 l/m 9,2 km/h (2 Bft)
05.03.2010 07:02 22,4 C -3,1 C -3,3 C 75 % 0 % 1012 hPa 0,0 l/m 9,6 km/h (2 Bft)
05.03.2010 07:05 21,3 C -3,1 C -3,4 C 75 % 0 % 1012 hPa 0,0 l/m 8,1 km/h (2 Bft)
05.03.2010 07:08 20,5 C -3,2 C -3,6 C 75 % 0 % 1012 hPa 0,0 l/m 8,8 km/h (2 Bft)
05.03.2010 07:11 20,5 C -3,2 C -3,6 C 75 % 0 % 1012 hPa 0,0 l/m 12,3 km/h (3 Bft)
05.03.2010 07:14 20,8 C -3,2 C -3,6 C 74 % 0 % 1013 hPa 0,0 l/m 10,6 km/h (2 Bft)
05.03.2010 07:17 21,0 C -3,1 C -3,4 C 74 % 0 % 1013 hPa 0,0 l/m 10,6 km/h (2 Bft)
05.03.2010 07:20 21,2 C -3,2 C -3,4 C 74 % 0 % 1013 hPa 0,0 l/m 9,1 km/h (2 Bft)
05.03.2010 07:23 21,2 C -3,2 C -2,5 C 74 % 0 % 1013 hPa 0,0 l/m 9,1 km/h (2 Bft)
05.03.2010 07:26 21,5 C -3,2 C -3,2 C 73 % 0 % 1013 hPa 0,0 l/m 10,7 km/h (2 Bft)
05.03.2010 07:29 21,6 C -3,2 C -3,3 C 71 % 0 % 1013 hPa 0,0 l/m 10,7 km/h (2 Bft)
05.03.2010 07:32 21,7 C -3,2 C -3,2 C 71 % 0 % 1013 hPa 0,0 l/m 10,8 km/h (2 Bft)
05.03.2010 07:35 21,8 C -3,2 C -2,8 C 71 % 0 % 1013 hPa 0,0 l/m 11,5 km/h (2 Bft)
05.03.2010 07:38 21,9 C -3,1 C -2,5 C 71 % 0 % 1013 hPa 0,0 l/m 9,3 km/h (2 Bft)
05.03.2010 07:41 22,0 C -3,1 C -2,6 C 71 % 0 % 1013 hPa 0,0 l/m 10,0 km/h (2 Bft)
05.03.2010 07:44 22,0 C -3,0 C -3,0 C 71 % 0 % 1013 hPa 0,0 l/m 17,7 km/h (3 Bft)
05.03.2010 07:47 22,0 C -3,0 C -3,0 C 71 % 0 % 1013 hPa 0,0 l/m 16,0 km/h (3 Bft)
05.03.2010 07:50 22,0 C -3,0 C -2,7 C 71 % 0 % 1013 hPa 0,0 l/m 11,1 km/h (2 Bft)
05.03.2010 07:53 22,1 C -3,0 C -2,3 C 71 % 0 % 1013 hPa 0,0 l/m 10,1 km/h (2 Bft)
05.03.2010 07:56 22,1 C -2,9 C -1,1 C 71 % 0 % 1013 hPa 0,0 l/m 13,0 km/h (3 Bft)
05.03.2010 07:59 22,1 C -2,8 C -0,7 C 71 % 0 % 1013 hPa 0,0 l/m 9,3 km/h (2 Bft)
05.03.2010 08:02 22,1 C -2,8 C -0,7 C 71 % 0 % 1013 hPa 0,0 l/m 12,5 km/h (3 Bft)
05.03.2010 08:05 22,1 C -2,8 C -0,9 C 71 % 0 % 1013 hPa 0,0 l/m 14,0 km/h (3 Bft)
05.03.2010 08:08 22,1 C -2,7 C -0,4 C 71 % 0 % 1013 hPa 0,0 l/m 17,5 km/h (3 Bft)
05.03.2010 08:11 22,1 C -2,7 C 0,0 C 69 % 0 % 1013 hPa 0,0 l/m 14,1 km/h (3 Bft)
05.03.2010 08:14 22,2 C -2,6 C 0,2 C 69 % 0 % 1013 hPa 0,0 l/m 22,1 km/h (4 Bft)
05.03.2010 08:17 22,2 C -2,7 C 1,6 C 70 % 0 % 1013 hPa 0,0 l/m 19,1 km/h (3 Bft)
05.03.2010 08:20 22,1 C -2,6 C 2,1 C 69 % 0 % 1013 hPa 0,0 l/m 19,1 km/h (3 Bft)
05.03.2010 08:23 22,1 C -2,5 C 1,9 C 70 % 0 % 1013 hPa 0,0 l/m 19,3 km/h (3 Bft)
05.03.2010 08:26 22,2 C -2,6 C 2,2 C 71 % 0 % 1013 hPa 0,0 l/m 17,6 km/h (3 Bft)
05.03.2010 08:29 22,2 C -2,5 C 2,0 C 71 % 0 % 1013 hPa 0,0 l/m 16,9 km/h (3 Bft)
05.03.2010 08:32 22,2 C -2,6 C 2,0 C 71 % 0 % 1013 hPa 0,0 l/m 16,6 km/h (3 Bft)
05.03.2010 08:35 22,3 C -2,5 C 2,5 C 72 % 0 % 1013 hPa 0,0 l/m 14,8 km/h (3 Bft)
05.03.2010 08:38 22,2 C -2,5 C 2,8 C 72 % 0 % 1013 hPa 0,0 l/m 21,1 km/h (4 Bft)
05.03.2010 08:41 22,2 C -2,5 C 4,0 C 72 % 0 % 1013 hPa 0,0 l/m 17,1 km/h (3 Bft)
05.03.2010 08:44 22,3 C -2,5 C 4,5 C 72 % 0 % 1013 hPa 0,0 l/m 21,4 km/h (4 Bft)
05.03.2010 08:47 22,3 C -2,2 C 4,9 C 71 % 0 % 1013 hPa 0,0 l/m 21,4 km/h (4 Bft)
05.03.2010 08:50 22,3 C -2,3 C 5,5 C 70 % 0 % 1013 hPa 0,0 l/m 19,0 km/h (3 Bft)
05.03.2010 08:53 22,3 C -2,2 C 5,0 C 70 % 0 % 1013 hPa 0,0 l/m 25,0 km/h (4 Bft)
05.03.2010 08:56 22,3 C -2,2 C 5,8 C 70 % 0 % 1013 hPa 0,0 l/m 22,3 km/h (4 Bft)
05.03.2010 08:59 22,3 C -2,2 C 6,0 C 70 % 0 % 1013 hPa 0,0 l/m 20,0 km/h (4 Bft)
05.03.2010 09:02 22,3 C -2,2 C 5,9 C 70 % 0 % 1013 hPa 0,0 l/m 21,0 km/h (4 Bft)
05.03.2010 09:05 22,3 C -2,2 C 8,3 C 69 % 0 % 1013 hPa 0,0 l/m 24,0 km/h (4 Bft)
05.03.2010 09:08 22,3 C -2,2 C 7,9 C 69 % 0 % 1013 hPa 0,0 l/m 27,0 km/h (4 Bft)
05.03.2010 09:11 22,2 C -2,1 C 7,1 C 69 % 0 % 1013 hPa 0,0 l/m 27,0 km/h (4 Bft)
05.03.2010 09:14 22,3 C -2,1 C 7,2 C 67 % 0 % 1013 hPa 0,0 l/m 25,3 km/h (4 Bft)
05.03.2010 09:17 22,2 C -2,0 C 10,7 C 68 % 0 % 1013 hPa 0,0 l/m 21,2 km/h (4 Bft)
05.03.2010 09:20 22,2 C -2,0 C 9,9 C 69 % 0 % 1013 hPa 0,0 l/m 17,0 km/h (3 Bft)
05.03.2010 09:23 22,3 C -1,8 C 3,9 C 66 % 0 % 1013 hPa 0,0 l/m 20,4 km/h (4 Bft)
05.03.2010 09:26 22,3 C -1,9 C 7,0 C 64 % 0 % 1013 hPa 0,0 l/m 33,9 km/h (5 Bft)
05.03.2010 09:29 22,3 C -1,9 C 7,0 C 64 % 0 % 1013 hPa 0,0 l/m 24,9 km/h (4 Bft)
05.03.2010 09:32 22,3 C -1,9 C 6,5 C 64 % 0 % 1013 hPa 0,0 l/m 21,8 km/h (4 Bft)
05.03.2010 09:35 22,3 C -1,7 C 9,5 C 65 % 0 % 1013 hPa 0,0 l/m 16,7 km/h (3 Bft)
05.03.2010 09:38 22,4 C -1,6 C 8,5 C 65 % 0 % 1013 hPa 0,0 l/m 29,5 km/h (5 Bft)
05.03.2010 09:41 22,4 C -1,5 C 9,5 C 65 % 0 % 1013 hPa 0,0 l/m 25,8 km/h (4 Bft)
05.03.2010 09:44 22,4 C -1,5 C 7,6 C 65 % 0 % 1013 hPa 0,0 l/m 26,0 km/h (4 Bft)
05.03.2010 09:47 22,3 C -1,6 C 2,3 C 65 % 0 % 1013 hPa 0,0 l/m 24,6 km/h (4 Bft)
05.03.2010 09:50 22,3 C -1,8 C 0,0 C 68 % 0 % 1013 hPa 0,0 l/m 27,0 km/h (4 Bft)
05.03.2010 09:53 22,3 C -1,9 C 1,6 C 66 % 0 % 1013 hPa 0,0 l/m 22,7 km/h (4 Bft)
05.03.2010 09:56 22,3 C -1,9 C 1,6 C 67 % 0 % 1013 hPa 0,0 l/m 29,0 km/h (5 Bft)
05.03.2010 09:59 22,3 C -1,7 C 10,5 C 67 % 0 % 1013 hPa 0,0 l/m 20,6 km/h (4 Bft)
05.03.2010 10:02 22,3 C -1,6 C 6,5 C 67 % 0 % 1013 hPa 0,0 l/m 24,8 km/h (4 Bft)
05.03.2010 10:05 22,3 C -1,6 C 4,1 C 67 % 0 % 1013 hPa 0,0 l/m 20,6 km/h (4 Bft)
05.03.2010 10:08 22,2 C -1,6 C 1,3 C 66 % 0 % 1014 hPa 0,0 l/m 22,4 km/h (4 Bft)
05.03.2010 10:11 22,2 C -1,6 C 1,3 C 66 % 0 % 1014 hPa 0,0 l/m 28,0 km/h (4 Bft)
05.03.2010 10:14 22,3 C -1,5 C 9,9 C 66 % 0 % 1014 hPa 0,0 l/m 28,7 km/h (4 Bft)
05.03.2010 10:17 22,3 C -1,4 C 10,8 C 65 % 0 % 1014 hPa 0,0 l/m 29,7 km/h (5 Bft)
05.03.2010 10:20 22,3 C -1,3 C 8,8 C 66 % 0 % 1013 hPa 0,0 l/m 28,0 km/h (4 Bft)
05.03.2010 10:23 22,4 C -1,2 C 10,7 C 65 % 0 % 1013 hPa 0,0 l/m 32,4 km/h (5 Bft)
05.03.2010 10:26 22,3 C -1,2 C 9,6 C 64 % 0 % 1014 hPa 0,0 l/m 22,3 km/h (4 Bft)
05.03.2010 10:29 22,3 C -1,2 C 5,5 C 63 % 0 % 1014 hPa 0,0 l/m 28,3 km/h (4 Bft)
05.03.2010 10:32 22,3 C -1,0 C 7,5 C 63 % 0 % 1013 hPa 0,0 l/m 26,8 km/h (4 Bft)
05.03.2010 10:35 22,3 C -1,0 C 5,9 C 62 % 0 % 1014 hPa 0,0 l/m 22,5 km/h (4 Bft)
05.03.2010 10:38 22,4 C -1,0 C 4,1 C 65 % 0 % 1013 hPa 0,0 l/m 26,6 km/h (4 Bft)
05.03.2010 10:41 22,3 C -1,0 C 5,6 C 63 % 0 % 1014 hPa 0,0 l/m 29,9 km/h (5 Bft)
05.03.2010 10:44 22,3 C -1,1 C 1,1 C 62 % 0 % 1014 hPa 0,0 l/m 29,9 km/h (5 Bft)
05.03.2010 10:47 22,3 C -1,4 C -0,5 C 62 % 0 % 1014 hPa 0,0 l/m 27,3 km/h (4 Bft)
05.03.2010 10:50 22,3 C -1,6 C -0,5 C 62 % 0 % 1014 hPa 0,0 l/m 19,9 km/h (4 Bft)
05.03.2010 10:53 22,3 C -1,6 C -0,5 C 63 % 0 % 1014 hPa 0,0 l/m 19,9 km/h (4 Bft)
05.03.2010 10:56 22,2 C -1,6 C 5,0 C 63 % 0 % 1014 hPa 0,0 l/m 28,6 km/h (4 Bft)
05.03.2010 10:59 22,2 C -1,6 C 7,3 C 63 % 0 % 1014 hPa 0,0 l/m 27,6 km/h (4 Bft)
05.03.2010 11:02 22,3 C -1,4 C 10,6 C 61 % 0 % 1014 hPa 0,0 l/m 25,1 km/h (4 Bft)
05.03.2010 11:05 22,3 C -1,3 C 5,2 C 61 % 0 % 1014 hPa 0,0 l/m 28,5 km/h (4 Bft)
05.03.2010 11:08 22,2 C -1,2 C 4,7 C 59 % 0 % 1014 hPa 0,0 l/m 28,5 km/h (4 Bft)
05.03.2010 11:11 22,2 C -1,2 C 5,2 C 59 % 0 % 1014 hPa 0,0 l/m 36,2 km/h (5 Bft)
05.03.2010 11:14 22,3 C -1,0 C 10,4 C 59 % 0 % 1014 hPa 0,0 l/m 24,5 km/h (4 Bft)
05.03.2010 11:17 22,3 C -1,0 C 11,8 C 59 % 0 % 1014 hPa 0,0 l/m 25,3 km/h (4 Bft)
05.03.2010 11:20 22,2 C -0,6 C 10,4 C 59 % 0 % 1014 hPa 0,0 l/m 26,7 km/h (4 Bft)
05.03.2010 11:23 22,2 C -0,6 C 10,4 C 60 % 0 % 1014 hPa 0,0 l/m 26,7 km/h (4 Bft)
05.03.2010 11:26 22,2 C -0,6 C 11,1 C 60 % 0 % 1014 hPa 0,0 l/m 23,0 km/h (4 Bft)
05.03.2010 11:29 22,3 C -0,5 C 7,9 C 59 % 0 % 1014 hPa 0,0 l/m 27,3 km/h (4 Bft)
05.03.2010 11:32 22,3 C -0,4 C 6,3 C 59 % 0 % 1014 hPa 0,0 l/m 25,2 km/h (4 Bft)
05.03.2010 11:35 22,3 C -0,3 C 6,3 C 58 % 0 % 1014 hPa 0,0 l/m 26,9 km/h (4 Bft)
05.03.2010 11:38 22,2 C -0,5 C 1,1 C 55 % 0 % 1014 hPa 0,0 l/m 24,3 km/h (4 Bft)
05.03.2010 11:41 22,2 C -0,9 C 0,7 C 55 % 0 % 1014 hPa 0,0 l/m 33,6 km/h (5 Bft)
05.03.2010 11:44 22,2 C -1,1 C 0,4 C 54 % 0 % 1014 hPa 0,0 l/m 30,6 km/h (5 Bft)
05.03.2010 11:47 22,2 C -1,4 C 0,0 C 56 % 0 % 1014 hPa 0,0 l/m 29,6 km/h (5 Bft)
05.03.2010 11:50 22,1 C -1,5 C -0,1 C 57 % 0 % 1014 hPa 0,0 l/m 28,8 km/h (4 Bft)
05.03.2010 11:53 22,1 C -1,6 C -0,1 C 58 % 0 % 1014 hPa 0,0 l/m 24,5 km/h (4 Bft)
05.03.2010 11:56 22,1 C -1,7 C -0,3 C 57 % 0 % 1014 hPa 0,0 l/m 21,8 km/h (4 Bft)
05.03.2010 11:59 22,1 C -1,6 C 0,6 C 57 % 0 % 1014 hPa 0,0 l/m 30,2 km/h (5 Bft)
05.03.2010 12:02 22,1 C -1,5 C 1,9 C 58 % 0 % 1014 hPa 0,0 l/m 28,7 km/h (4 Bft)
05.03.2010 12:05 22,1 C -1,3 C 3,0 C 57 % 0 % 1014 hPa 0,0 l/m 27,1 km/h (4 Bft)
05.03.2010 12:08 22,1 C -1,0 C 3,9 C 59 % 0 % 1014 hPa 0,0 l/m 31,5 km/h (5 Bft)
05.03.2010 12:11 22,1 C -0,8 C 2,6 C 55 % 0 % 1014 hPa 0,0 l/m 31,2 km/h (5 Bft)
05.03.2010 12:14 22,1 C -0,8 C 2,6 C 52 % 0 % 1014 hPa 0,0 l/m 41,5 km/h (6 Bft)
05.03.2010 12:17 22,1 C -0,8 C 2,7 C 52 % 0 % 1014 hPa 0,0 l/m 32,4 km/h (5 Bft)
05.03.2010 12:20 22,1 C -0,7 C 0,8 C 53 % 0 % 1014 hPa 0,0 l/m 30,0 km/h (5 Bft)
05.03.2010 12:23 22,1 C -0,9 C 0,6 C 52 % 0 % 1014 hPa 0,0 l/m 36,3 km/h (5 Bft)
05.03.2010 12:26 22,1 C -1,0 C 0,7 C 52 % 0 % 1014 hPa 0,0 l/m 35,6 km/h (5 Bft)
05.03.2010 12:29 22,1 C -1,0 C 0,7 C 52 % 0 % 1014 hPa 0,0 l/m 34,0 km/h (5 Bft)
05.03.2010 12:32 22,2 C -0,8 C 2,0 C 52 % 0 % 1014 hPa 0,0 l/m 28,1 km/h (4 Bft)
05.03.2010 12:35 22,2 C -0,6 C 2,4 C 54 % 0 % 1013 hPa 0,0 l/m 37,4 km/h (5 Bft)
05.03.2010 12:38 22,1 C -0,5 C 2,4 C 54 % 0 % 1013 hPa 0,0 l/m 28,0 km/h (4 Bft)
05.03.2010 12:41 22,2 C -0,6 C 2,0 C 57 % 0 % 1013 hPa 0,0 l/m 27,3 km/h (4 Bft)
05.03.2010 12:44 22,2 C -0,6 C 2,0 C 57 % 0 % 1013 hPa 0,0 l/m 27,6 km/h (4 Bft)
05.03.2010 12:47 22,1 C -1,1 C 0,2 C 61 % 0 % 1014 hPa 0,0 l/m 26,1 km/h (4 Bft)
05.03.2010 12:50 22,2 C -1,4 C 0,1 C 60 % 0 % 1014 hPa 0,0 l/m 15,9 km/h (3 Bft)
05.03.2010 12:53 22,1 C -1,6 C -0,1 C 61 % 0 % 1014 hPa 0,0 l/m 38,4 km/h (5 Bft)
05.03.2010 12:56 22,1 C -1,7 C -0,1 C 61 % 0 % 1014 hPa 0,0 l/m 35,9 km/h (5 Bft)
05.03.2010 12:59 22,1 C -1,8 C -0,1 C 61 % 0 % 1014 hPa 0,0 l/m 28,2 km/h (4 Bft)
05.03.2010 13:02 22,1 C -1,8 C 0,2 C 61 % 0 % 1014 hPa 0,0 l/m 30,3 km/h (5 Bft)
05.03.2010 13:05 22,1 C -1,8 C 0,2 C 63 % 0 % 1014 hPa 0,0 l/m 30,3 km/h (5 Bft)
05.03.2010 13:08 22,0 C -1,6 C 0,5 C 64 % 0 % 1014 hPa 0,0 l/m 35,4 km/h (5 Bft)
05.03.2010 13:11 22,0 C -1,5 C 0,7 C 64 % 0 % 1014 hPa 0,0 l/m 26,3 km/h (4 Bft)
05.03.2010 13:14 22,0 C -1,4 C 0,7 C 63 % 0 % 1014 hPa 0,0 l/m 22,8 km/h (4 Bft)
05.03.2010 13:17 22,0 C -1,4 C 1,4 C 61 % 0 % 1014 hPa 0,0 l/m 21,8 km/h (4 Bft)
05.03.2010 13:20 22,0 C -1,4 C 1,0 C 61 % 0 % 1013 hPa 0,0 l/m 27,5 km/h (4 Bft)
05.03.2010 13:23 21,7 C -1,4 C 1,0 C 61 % 0 % 1013 hPa 0,0 l/m 27,5 km/h (4 Bft)
05.03.2010 13:26 21,6 C -1,3 C 0,8 C 64 % 0 % 1013 hPa 0,0 l/m 24,7 km/h (4 Bft)
05.03.2010 13:29 21,4 C -1,1 C 1,5 C 65 % 0 % 1013 hPa 0,0 l/m 28,1 km/h (4 Bft)
05.03.2010 13:32 21,4 C -1,0 C 1,6 C 59 % 0 % 1013 hPa 0,0 l/m 38,8 km/h (5 Bft)
05.03.2010 13:35 21,6 C -1,2 C 0,2 C 61 % 0 % 1013 hPa 0,0 l/m 28,6 km/h (4 Bft)
05.03.2010 13:38 21,7 C -1,2 C 0,6 C 61 % 0 % 1013 hPa 0,0 l/m 22,6 km/h (4 Bft)
05.03.2010 13:41 21,8 C -1,3 C 1,0 C 58 % 0 % 1013 hPa 0,0 l/m 32,4 km/h (5 Bft)
05.03.2010 13:44 21,8 C -1,4 C -0,1 C 59 % 0 % 1013 hPa 0,0 l/m 34,6 km/h (5 Bft)
05.03.2010 13:47 22,0 C -1,6 C -0,6 C 62 % 0 % 1013 hPa 0,0 l/m 38,2 km/h (5 Bft)
05.03.2010 13:50 22,1 C -1,5 C 1,1 C 63 % 0 % 1013 hPa 0,0 l/m 30,4 km/h (5 Bft)
05.03.2010 13:53 22,1 C -1,4 C 1,6 C 63 % 0 % 1013 hPa 0,0 l/m 35,9 km/h (5 Bft)
05.03.2010 13:56 22,2 C -1,2 C 2,5 C 60 % 0 % 1013 hPa 0,0 l/m 31,1 km/h (5 Bft)
05.03.2010 13:59 22,3 C -0,8 C 3,9 C 63 % 0 % 1013 hPa 0,0 l/m 29,9 km/h (5 Bft)
05.03.2010 14:02 22,3 C -0,8 C 2,1 C 63 % 0 % 1013 hPa 0,0 l/m 33,0 km/h (5 Bft)
05.03.2010 14:05 22,4 C -1,0 C 1,2 C 65 % 0 % 1013 hPa 0,0 l/m 28,3 km/h (4 Bft)
05.03.2010 14:08 22,4 C -1,2 C 2,8 C 60 % 0 % 1013 hPa 0,0 l/m 27,3 km/h (4 Bft)
05.03.2010 14:11 22,5 C -1,2 C 2,2 C 59 % 0 % 1013 hPa 0,0 l/m 30,5 km/h (5 Bft)
05.03.2010 14:14 22,5 C -1,0 C 0,2 C 55 % 0 % 1013 hPa 0,0 l/m 30,3 km/h (5 Bft)
05.03.2010 14:17 22,6 C -1,2 C 1,7 C 55 % 0 % 1013 hPa 0,0 l/m 37,7 km/h (5 Bft)
05.03.2010 14:20 22,6 C -1,2 C 0,3 C 56 % 0 % 1013 hPa 0,0 l/m 27,3 km/h (4 Bft)
05.03.2010 14:23 22,6 C -1,3 C -0,9 C 56 % 0 % 1013 hPa 0,0 l/m 31,6 km/h (5 Bft)
05.03.2010 14:26 22,7 C -1,4 C 0,4 C 58 % 0 % 1013 hPa 0,0 l/m 26,8 km/h (4 Bft)
05.03.2010 14:29 22,7 C -1,3 C 0,2 C 56 % 0 % 1013 hPa 0,0 l/m 28,9 km/h (5 Bft)
05.03.2010 14:32 22,7 C -1,2 C 3,6 C 58 % 0 % 1013 hPa 0,0 l/m 20,9 km/h (4 Bft)
05.03.2010 14:35 22,8 C -1,0 C 5,1 C 59 % 0 % 1013 hPa 0,0 l/m 28,1 km/h (4 Bft)
05.03.2010 14:38 22,8 C -0,7 C 4,8 C 59 % 0 % 1013 hPa 0,0 l/m 32,9 km/h (5 Bft)
05.03.2010 14:41 22,8 C -0,6 C 4,7 C 59 % 0 % 1013 hPa 0,0 l/m 32,7 km/h (5 Bft)
05.03.2010 14:44 22,8 C -0,6 C 2,8 C 59 % 0 % 1013 hPa 0,0 l/m 31,1 km/h (5 Bft)
05.03.2010 14:47 22,8 C -0,9 C -0,4 C 56 % 0 % 1013 hPa 0,0 l/m 31,8 km/h (5 Bft)
05.03.2010 14:50 22,8 C -1,4 C -0,7 C 57 % 0 % 1013 hPa 0,0 l/m 31,8 km/h (5 Bft)
05.03.2010 14:53 22,8 C -1,5 C 0,7 C 58 % 0 % 1013 hPa 0,0 l/m 23,1 km/h (4 Bft)
05.03.2010 14:56 22,8 C -1,5 C 3,0 C 57 % 0 % 1013 hPa 0,0 l/m 28,8 km/h (4 Bft)
05.03.2010 14:59 22,8 C -1,4 C 3,0 C 57 % 0 % 1013 hPa 0,0 l/m 25,0 km/h (4 Bft)
05.03.2010 15:02 22,8 C -1,4 C -0,7 C 56 % 0 % 1013 hPa 0,0 l/m 25,0 km/h (4 Bft)
05.03.2010 15:05 22,9 C -1,5 C -1,2 C 58 % 0 % 1013 hPa 0,0 l/m 33,0 km/h (5 Bft)
05.03.2010 15:08 22,9 C -1,6 C -1,1 C 58 % 0 % 1013 hPa 0,0 l/m 28,3 km/h (4 Bft)
05.03.2010 15:11 23,0 C -1,6 C 2,2 C 60 % 0 % 1013 hPa 0,0 l/m 30,0 km/h (5 Bft)
05.03.2010 15:14 22,9 C -1,4 C 0,4 C 60 % 0 % 1013 hPa 0,0 l/m 20,8 km/h (4 Bft)
05.03.2010 15:17 23,0 C -1,4 C -0,9 C 57 % 0 % 1013 hPa 0,0 l/m 33,3 km/h (5 Bft)
05.03.2010 15:20 23,0 C -1,5 C -1,6 C 55 % 0 % 1013 hPa 0,0 l/m 40,5 km/h (6 Bft)
05.03.2010 15:23 23,0 C -1,7 C -1,7 C 58 % 0 % 1013 hPa 0,0 l/m 40,5 km/h (6 Bft)
05.03.2010 15:26 23,0 C -1,8 C -0,7 C 59 % 0 % 1013 hPa 0,0 l/m 23,7 km/h (4 Bft)
05.03.2010 15:29 23,0 C -1,7 C 2,0 C 59 % 0 % 1013 hPa 0,0 l/m 18,2 km/h (3 Bft)
05.03.2010 15:32 23,0 C -1,7 C 2,0 C 61 % 0 % 1013 hPa 0,0 l/m 33,1 km/h (5 Bft)
05.03.2010 15:35 23,0 C -1,8 C -0,7 C 61 % 0 % 1013 hPa 0,0 l/m 26,9 km/h (4 Bft)
05.03.2010 15:38 23,0 C -1,9 C -0,7 C 67 % 0 % 1013 hPa 0,0 l/m 30,7 km/h (5 Bft)
05.03.2010 15:41 23,0 C -2,1 C -1,8 C 68 % 0 % 1013 hPa 0,0 l/m 40,6 km/h (6 Bft)
05.03.2010 15:44 23,0 C -2,0 C 0,8 C 69 % 0 % 1013 hPa 0,0 l/m 40,6 km/h (6 Bft)
05.03.2010 15:47 23,0 C -2,1 C 1,0 C 69 % 0 % 1013 hPa 0,0 l/m 36,7 km/h (5 Bft)
05.03.2010 15:50 23,0 C -2,1 C 1,0 C 68 % 0 % 1013 hPa 0,0 l/m 36,8 km/h (5 Bft)
05.03.2010 15:53 23,1 C -2,1 C 0,9 C 67 % 0 % 1013 hPa 0,0 l/m 31,5 km/h (5 Bft)
05.03.2010 15:56 23,0 C -2,1 C 1,2 C 67 % 0 % 1013 hPa 0,0 l/m 22,7 km/h (4 Bft)
05.03.2010 15:59 23,0 C -2,1 C 0,5 C 65 % 0 % 1013 hPa 0,0 l/m 29,8 km/h (5 Bft)
05.03.2010 16:02 23,1 C -2,0 C 1,1 C 64 % 0 % 1013 hPa 0,0 l/m 32,2 km/h (5 Bft)
05.03.2010 16:05 23,0 C -2,0 C 1,1 C 62 % 0 % 1013 hPa 0,0 l/m 35,7 km/h (5 Bft)
05.03.2010 16:08 23,0 C -2,0 C 0,3 C 62 % 0 % 1013 hPa 0,0 l/m 33,4 km/h (5 Bft)
05.03.2010 16:11 23,0 C -1,9 C 0,9 C 61 % 0 % 1013 hPa 0,0 l/m 24,8 km/h (4 Bft)
05.03.2010 16:14 23,0 C -1,9 C 0,6 C 61 % 0 % 1013 hPa 0,0 l/m 24,5 km/h (4 Bft)
05.03.2010 16:17 23,1 C -1,9 C 0,5 C 59 % 0 % 1013 hPa 0,0 l/m 28,0 km/h (4 Bft)
05.03.2010 16:20 23,0 C -1,8 C 0,1 C 60 % 0 % 1013 hPa 0,0 l/m 30,9 km/h (5 Bft)
05.03.2010 16:23 23,1 C -1,8 C 0,7 C 59 % 0 % 1013 hPa 0,0 l/m 31,8 km/h (5 Bft)
05.03.2010 16:26 23,1 C -1,8 C 0,2 C 59 % 0 % 1013 hPa 0,0 l/m 31,8 km/h (5 Bft)
05.03.2010 16:29 23,0 C -1,8 C -0,4 C 60 % 0 % 1013 hPa 0,0 l/m 25,6 km/h (4 Bft)
05.03.2010 16:32 23,0 C -1,8 C 0,0 C 60 % 0 % 1013 hPa 0,0 l/m 26,6 km/h (4 Bft)
05.03.2010 16:35 23,1 C -1,8 C -0,2 C 60 % 0 % 1014 hPa 0,0 l/m 23,5 km/h (4 Bft)
05.03.2010 16:38 23,1 C -1,9 C -1,6 C 62 % 0 % 1014 hPa 0,0 l/m 21,6 km/h (4 Bft)
05.03.2010 16:41 23,1 C -2,0 C -2,0 C 63 % 0 % 1014 hPa 0,0 l/m 18,6 km/h (3 Bft)
05.03.2010 16:44 23,0 C -2,0 C -2,3 C 63 % 0 % 1014 hPa 0,0 l/m 18,6 km/h (3 Bft)
05.03.2010 16:47 23,0 C -2,2 C -1,9 C 64 % 0 % 1014 hPa 0,0 l/m 27,5 km/h (4 Bft)
05.03.2010 16:50 23,1 C -1,9 C -1,0 C 64 % 0 % 1014 hPa 0,0 l/m 22,1 km/h (4 Bft)
05.03.2010 16:53 23,1 C -1,9 C -0,9 C 64 % 0 % 1014 hPa 0,0 l/m 24,1 km/h (4 Bft)
05.03.2010 16:56 23,1 C -1,9 C -1,1 C 66 % 0 % 1014 hPa 0,0 l/m 22,0 km/h (4 Bft)
05.03.2010 16:59 23,2 C -2,0 C -2,0 C 65 % 0 % 1014 hPa 0,0 l/m 27,9 km/h (4 Bft)
05.03.2010 17:02 23,2 C -2,1 C -2,1 C 67 % 0 % 1014 hPa 0,0 l/m 20,5 km/h (4 Bft)
05.03.2010 17:05 23,2 C -2,2 C -2,0 C 69 % 0 % 1014 hPa 0,0 l/m 26,5 km/h (4 Bft)
05.03.2010 17:08 23,1 C -2,2 C -1,6 C 69 % 0 % 1014 hPa 0,0 l/m 16,1 km/h (3 Bft)
05.03.2010 17:11 23,2 C -2,2 C -2,3 C 70 % 0 % 1014 hPa 0,0 l/m 16,4 km/h (3 Bft)
05.03.2010 17:14 23,2 C -2,3 C -2,4 C 68 % 0 % 1014 hPa 0,0 l/m 27,9 km/h (4 Bft)
05.03.2010 17:17 23,2 C -2,5 C -2,7 C 67 % 0 % 1014 hPa 0,0 l/m 28,2 km/h (4 Bft)
05.03.2010 17:20 23,1 C -2,6 C -2,3 C 68 % 0 % 1014 hPa 0,0 l/m 26,5 km/h (4 Bft)
05.03.2010 17:23 23,2 C -2,6 C -2,3 C 67 % 0 % 1014 hPa 0,0 l/m 23,9 km/h (4 Bft)
05.03.2010 17:26 23,2 C -2,8 C -2,8 C 68 % 0 % 1014 hPa 0,0 l/m 29,2 km/h (5 Bft)
05.03.2010 17:29 23,2 C -2,9 C -2,9 C 72 % 0 % 1014 hPa 0,0 l/m 29,2 km/h (5 Bft)
05.03.2010 17:32 23,2 C -3,0 C -3,0 C 73 % 0 % 1014 hPa 0,0 l/m 34,1 km/h (5 Bft)
05.03.2010 17:35 23,2 C -3,0 C -3,0 C 73 % 0 % 1014 hPa 0,0 l/m 34,6 km/h (5 Bft)
05.03.2010 17:38 23,2 C -3,2 C -2,8 C 73 % 0 % 1014 hPa 0,0 l/m 24,0 km/h (4 Bft)
05.03.2010 17:41 23,2 C -3,3 C -3,1 C 74 % 0 % 1014 hPa 0,0 l/m 19,6 km/h (3 Bft)
05.03.2010 17:44 23,3 C -3,3 C -3,1 C 74 % 0 % 1014 hPa 0,0 l/m 21,1 km/h (4 Bft)
05.03.2010 17:47 23,4 C -3,4 C -3,1 C 72 % 0 % 1014 hPa 0,0 l/m 19,2 km/h (3 Bft)
05.03.2010 17:50 23,5 C -3,3 C -3,5 C 72 % 0 % 1014 hPa 0,0 l/m 18,9 km/h (3 Bft)
05.03.2010 17:53 23,5 C -3,3 C -3,5 C 72 % 0 % 1014 hPa 0,0 l/m 10,0 km/h (2 Bft)
05.03.2010 17:56 23,6 C -3,3 C -3,6 C 72 % 0 % 1014 hPa 0,0 l/m 13,0 km/h (3 Bft)
05.03.2010 17:59 23,7 C -3,4 C -3,8 C 73 % 0 % 1014 hPa 0,0 l/m 14,3 km/h (3 Bft)
05.03.2010 18:02 23,7 C -3,3 C -3,6 C 71 % 0 % 1014 hPa 0,0 l/m 16,0 km/h (3 Bft)
05.03.2010 18:05 23,8 C -3,3 C -3,6 C 70 % 0 % 1014 hPa 0,0 l/m 15,1 km/h (3 Bft)
05.03.2010 18:08 23,8 C -3,2 C -3,7 C 69 % 0 % 1014 hPa 0,0 l/m 12,5 km/h (3 Bft)
05.03.2010 18:11 23,8 C -3,2 C -3,7 C 70 % 0 % 1014 hPa 0,0 l/m 17,4 km/h (3 Bft)
05.03.2010 18:14 23,8 C -3,2 C -3,3 C 69 % 0 % 1014 hPa 0,0 l/m 27,6 km/h (4 Bft)
05.03.2010 18:17 23,9 C -3,2 C -3,0 C 70 % 0 % 1014 hPa 0,0 l/m 33,9 km/h (5 Bft)
05.03.2010 18:20 23,9 C -3,2 C -3,1 C 70 % 0 % 1014 hPa 0,0 l/m 24,5 km/h (4 Bft)
05.03.2010 18:23 23,9 C -3,1 C -3,0 C 69 % 0 % 1014 hPa 0,0 l/m 32,7 km/h (5 Bft)
05.03.2010 18:26 24,0 C -3,1 C -3,2 C 68 % 0 % 1014 hPa 0,0 l/m 32,5 km/h (5 Bft)
05.03.2010 18:29 24,0 C -2,9 C -2,8 C 65 % 0 % 1014 hPa 0,0 l/m 28,5 km/h (4 Bft)
05.03.2010 18:32 24,0 C -2,9 C -2,9 C 65 % 0 % 1014 hPa 0,0 l/m 32,3 km/h (5 Bft)
05.03.2010 18:35 24,0 C -2,7 C -2,8 C 64 % 0 % 1014 hPa 0,0 l/m 27,5 km/h (4 Bft)
05.03.2010 18:38 24,0 C -2,7 C -2,7 C 66 % 0 % 1014 hPa 0,0 l/m 24,0 km/h (4 Bft)
05.03.2010 18:41 24,0 C -2,7 C -2,6 C 67 % 0 % 1014 hPa 0,0 l/m 19,6 km/h (3 Bft)
05.03.2010 18:44 24,0 C -2,7 C -2,8 C 67 % 0 % 1015 hPa 0,0 l/m 19,6 km/h (3 Bft)
05.03.2010 18:47 24,0 C -2,7 C -3,0 C 66 % 0 % 1015 hPa 0,0 l/m 17,8 km/h (3 Bft)
05.03.2010 18:50 24,1 C -2,7 C -3,0 C 66 % 0 % 1015 hPa 0,0 l/m 16,0 km/h (3 Bft)
05.03.2010 18:53 24,1 C -2,7 C -3,2 C 66 % 0 % 1015 hPa 0,0 l/m 17,9 km/h (3 Bft)
05.03.2010 18:56 24,1 C -2,7 C -3,2 C 66 % 0 % 1015 hPa 0,0 l/m 13,1 km/h (3 Bft)
05.03.2010 18:59 24,2 C -2,7 C -3,2 C 67 % 0 % 1015 hPa 0,0 l/m 14,5 km/h (3 Bft)
05.03.2010 19:02 24,2 C -2,7 C -2,9 C 67 % 0 % 1015 hPa 0,0 l/m 12,9 km/h (3 Bft)
05.03.2010 19:05 24,2 C -2,6 C -2,8 C 66 % 0 % 1015 hPa 0,0 l/m 14,2 km/h (3 Bft)
05.03.2010 19:08 24,2 C -2,6 C -3,0 C 65 % 0 % 1015 hPa 0,0 l/m 14,4 km/h (3 Bft)
05.03.2010 19:11 24,2 C -2,6 C -3,1 C 62 % 0 % 1015 hPa 0,0 l/m 21,3 km/h (4 Bft)
05.03.2010 19:14 24,2 C -2,6 C -3,1 C 63 % 0 % 1015 hPa 0,0 l/m 14,8 km/h (3 Bft)
05.03.2010 19:17 24,2 C -2,6 C -3,0 C 65 % 0 % 1015 hPa 0,0 l/m 13,8 km/h (3 Bft)
05.03.2010 19:20 24,3 C -2,6 C -3,0 C 66 % 0 % 1015 hPa 0,0 l/m 13,8 km/h (3 Bft)
05.03.2010 19:23 24,3 C -2,6 C -3,1 C 66 % 0 % 1015 hPa 0,0 l/m 12,4 km/h (3 Bft)
05.03.2010 19:26 24,4 C -2,6 C -3,2 C 67 % 0 % 1015 hPa 0,0 l/m 11,4 km/h (2 Bft)
05.03.2010 19:29 24,5 C -2,7 C -3,2 C 68 % 0 % 1015 hPa 0,0 l/m 10,3 km/h (2 Bft)
05.03.2010 19:32 24,5 C -2,7 C -3,0 C 68 % 0 % 1015 hPa 0,0 l/m 9,1 km/h (2 Bft)
05.03.2010 19:35 24,5 C -2,7 C -3,0 C 68 % 0 % 1015 hPa 0,0 l/m 9,8 km/h (2 Bft)
05.03.2010 19:38 24,4 C -2,7 C -3,0 C 69 % 0 % 1015 hPa 0,0 l/m 7,0 km/h (2 Bft)
05.03.2010 19:41 24,4 C -2,7 C -3,0 C 69 % 0 % 1015 hPa 0,0 l/m 7,0 km/h (2 Bft)
05.03.2010 19:44 24,4 C -2,8 C -2,8 C 69 % 0 % 1015 hPa 0,0 l/m 5,2 km/h (1 Bft)
05.03.2010 19:47 24,4 C -2,8 C -2,7 C 69 % 0 % 1015 hPa 0,0 l/m 4,2 km/h (1 Bft)
05.03.2010 19:50 24,4 C -2,7 C -2,7 C 69 % 0 % 1015 hPa 0,0 l/m 4,7 km/h (1 Bft)
05.03.2010 19:53 24,4 C -2,8 C -2,7 C 70 % 0 % 1015 hPa 0,0 l/m 1,9 km/h (1 Bft)
05.03.2010 19:56 24,4 C -2,8 C -2,8 C 70 % 0 % 1015 hPa 0,0 l/m 4,2 km/h (1 Bft)
05.03.2010 19:59 24,5 C -2,8 C -3,0 C 70 % 0 % 1015 hPa 0,0 l/m 4,8 km/h (1 Bft)
05.03.2010 20:02 24,5 C -2,8 C -3,1 C 70 % 0 % 1015 hPa 0,0 l/m 9,5 km/h (2 Bft)
05.03.2010 20:05 24,5 C -2,7 C -3,0 C 68 % 0 % 1015 hPa 0,0 l/m 4,8 km/h (1 Bft)
05.03.2010 20:08 24,5 C -2,7 C -3,1 C 68 % 0 % 1015 hPa 0,0 l/m 8,0 km/h (2 Bft)
05.03.2010 20:11 24,6 C -2,8 C -3,1 C 67 % 0 % 1015 hPa 0,0 l/m 6,3 km/h (2 Bft)
05.03.2010 20:14 24,6 C -2,8 C -3,1 C 66 % 0 % 1015 hPa 0,0 l/m 7,0 km/h (2 Bft)
05.03.2010 20:17 24,6 C -2,7 C -3,0 C 66 % 0 % 1015 hPa 0,0 l/m 5,6 km/h (1 Bft)
05.03.2010 20:20 24,6 C -2,7 C -3,0 C 65 % 0 % 1015 hPa 0,0 l/m 9,2 km/h (2 Bft)
05.03.2010 20:23 24,6 C -2,7 C -3,0 C 66 % 0 % 1015 hPa 0,0 l/m 5,7 km/h (1 Bft)
05.03.2010 20:26 24,6 C -2,7 C -3,0 C 65 % 0 % 1015 hPa 0,0 l/m 5,4 km/h (1 Bft)
05.03.2010 20:29 24,6 C -2,7 C -3,1 C 66 % 0 % 1015 hPa 0,0 l/m 5,0 km/h (1 Bft)
05.03.2010 20:32 24,6 C -2,7 C -3,0 C 64 % 0 % 1015 hPa 0,0 l/m 5,0 km/h (1 Bft)
05.03.2010 20:35 24,6 C -2,8 C -3,0 C 66 % 0 % 1015 hPa 0,0 l/m 3,3 km/h (1 Bft)
05.03.2010 20:38 24,6 C -2,7 C -3,2 C 65 % 0 % 1015 hPa 0,0 l/m 5,9 km/h (2 Bft)
05.03.2010 20:41 24,6 C -2,8 C -3,2 C 62 % 0 % 1015 hPa 0,0 l/m 6,9 km/h (2 Bft)
05.03.2010 20:44 24,6 C -2,7 C -3,3 C 63 % 0 % 1015 hPa 0,0 l/m 6,9 km/h (2 Bft)
05.03.2010 20:47 24,6 C -2,8 C -3,5 C 64 % 0 % 1015 hPa 0,0 l/m 3,3 km/h (1 Bft)
05.03.2010 20:50 24,7 C -2,8 C -3,6 C 66 % 0 % 1015 hPa 0,0 l/m 2,1 km/h (1 Bft)
05.03.2010 20:53 24,7 C -2,9 C -3,7 C 66 % 0 % 1015 hPa 0,0 l/m 2,4 km/h (1 Bft)
05.03.2010 20:56 24,7 C -2,9 C -3,6 C 66 % 0 % 1015 hPa 0,0 l/m 0,2 km/h (0 Bft)
05.03.2010 20:59 24,7 C -2,9 C -3,6 C 66 % 0 % 1015 hPa 0,0 l/m 2,8 km/h (1 Bft)
05.03.2010 21:02 24,7 C -3,0 C -3,6 C 66 % 0 % 1015 hPa 0,0 l/m 2,4 km/h (1 Bft)
05.03.2010 21:05 24,8 C -3,0 C -3,5 C 67 % 0 % 1015 hPa 0,0 l/m 3,1 km/h (1 Bft)
05.03.2010 21:08 24,8 C -3,0 C -3,5 C 67 % 0 % 1015 hPa 0,0 l/m 0,7 km/h (0 Bft)
05.03.2010 21:11 24,8 C -3,0 C -3,5 C 68 % 0 % 1014 hPa 0,0 l/m 1,9 km/h (1 Bft)
05.03.2010 21:14 24,8 C -3,0 C -3,4 C 68 % 0 % 1014 hPa 0,0 l/m 0,9 km/h (0 Bft)
05.03.2010 21:17 24,8 C -3,0 C -3,3 C 68 % 0 % 1014 hPa 0,0 l/m 0,9 km/h (0 Bft)
05.03.2010 21:20 24,8 C -3,0 C -3,3 C 69 % 0 % 1014 hPa 0,0 l/m 0,6 km/h (0 Bft)
05.03.2010 21:23 24,8 C -3,0 C -3,6 C 69 % 0 % 1014 hPa 0,0 l/m 2,5 km/h (1 Bft)
05.03.2010 21:26 24,8 C -3,0 C -3,9 C 68 % 0 % 1014 hPa 0,0 l/m 2,2 km/h (1 Bft)
05.03.2010 21:29 24,9 C -3,0 C -4,3 C 68 % 0 % 1014 hPa 0,0 l/m 2,2 km/h (1 Bft)
05.03.2010 21:32 24,8 C -3,1 C -4,5 C 68 % 0 % 1014 hPa 0,0 l/m 0,3 km/h (0 Bft)
05.03.2010 21:35 24,8 C -3,1 C -4,6 C 68 % 0 % 1014 hPa 0,0 l/m 0,3 km/h (0 Bft)
05.03.2010 21:38 24,6 C -3,2 C -4,8 C 68 % 0 % 1014 hPa 0,0 l/m 0,4 km/h (0 Bft)
05.03.2010 21:41 24,5 C -3,3 C -4,8 C 68 % 0 % 1014 hPa 0,0 l/m 2,1 km/h (1 Bft)
05.03.2010 21:44 24,4 C -3,3 C -4,9 C 68 % 0 % 1014 hPa 0,0 l/m 1,5 km/h (1 Bft)
05.03.2010 21:47 24,2 C -3,3 C -4,9 C 69 % 0 % 1014 hPa 0,0 l/m 1,1 km/h (1 Bft)
05.03.2010 21:50 24,1 C -3,4 C -5,0 C 69 % 0 % 1014 hPa 0,0 l/m 2,7 km/h (1 Bft)
05.03.2010 21:53 24,0 C -3,4 C -5,0 C 69 % 0 % 1014 hPa 0,0 l/m 4,8 km/h (1 Bft)
05.03.2010 21:56 24,0 C -3,4 C -4,9 C 70 % 0 % 1014 hPa 0,0 l/m 2,7 km/h (1 Bft)
05.03.2010 21:59 23,7 C -3,4 C -4,9 C 70 % 0 % 1014 hPa 0,0 l/m 3,9 km/h (1 Bft)
05.03.2010 22:02 23,6 C -3,4 C -4,9 C 70 % 0 % 1014 hPa 0,0 l/m 3,8 km/h (1 Bft)
05.03.2010 22:05 23,6 C -3,5 C -4,9 C 70 % 0 % 1014 hPa 0,0 l/m 1,2 km/h (1 Bft)
05.03.2010 22:08 23,6 C -3,6 C -4,9 C 70 % 0 % 1014 hPa 0,0 l/m 2,4 km/h (1 Bft)
05.03.2010 22:11 23,6 C -3,7 C -5,0 C 70 % 0 % 1014 hPa 0,0 l/m 4,2 km/h (1 Bft)
05.03.2010 22:14 23,7 C -3,8 C -5,0 C 70 % 0 % 1014 hPa 0,0 l/m 3,4 km/h (1 Bft)
05.03.2010 22:17 23,8 C -3,8 C -5,0 C 70 % 0 % 1014 hPa 0,0 l/m 3,4 km/h (1 Bft)
05.03.2010 22:20 23,9 C -3,8 C -4,9 C 70 % 0 % 1014 hPa 0,0 l/m 3,4 km/h (1 Bft)
05.03.2010 22:23 24,0 C -3,8 C -4,8 C 71 % 0 % 1014 hPa 0,0 l/m 6,6 km/h (2 Bft)
05.03.2010 22:26 24,0 C -3,8 C -4,8 C 70 % 0 % 1014 hPa 0,0 l/m 5,7 km/h (1 Bft)
05.03.2010 22:29 24,1 C -3,8 C -4,9 C 70 % 0 % 1014 hPa 0,0 l/m 2,4 km/h (1 Bft)
05.03.2010 22:32 24,1 C -3,8 C -4,9 C 70 % 0 % 1014 hPa 0,0 l/m 5,6 km/h (1 Bft)
05.03.2010 22:35 24,2 C -3,8 C -4,9 C 70 % 0 % 1014 hPa 0,0 l/m 5,2 km/h (1 Bft)
05.03.2010 22:38 24,2 C -3,9 C -5,0 C 70 % 0 % 1014 hPa 0,0 l/m 4,0 km/h (1 Bft)
05.03.2010 22:41 24,2 C -4,0 C -5,0 C 69 % 0 % 1014 hPa 0,0 l/m 4,5 km/h (1 Bft)
05.03.2010 22:44 24,2 C -4,0 C -5,0 C 70 % 0 % 1014 hPa 0,0 l/m 3,1 km/h (1 Bft)
05.03.2010 22:47 24,2 C -4,0 C -5,0 C 70 % 0 % 1014 hPa 0,0 l/m 3,3 km/h (1 Bft)
05.03.2010 22:50 24,2 C -4,0 C -5,0 C 69 % 0 % 1014 hPa 0,0 l/m 2,2 km/h (1 Bft)
05.03.2010 22:53 24,2 C -4,0 C -4,7 C 69 % 0 % 1014 hPa 0,0 l/m 4,0 km/h (1 Bft)
05.03.2010 22:56 24,2 C -4,0 C -4,4 C 70 % 0 % 1013 hPa 0,0 l/m 3,8 km/h (1 Bft)
05.03.2010 22:59 24,2 C -4,0 C -4,2 C 70 % 0 % 1013 hPa 0,0 l/m 6,7 km/h (2 Bft)
05.03.2010 23:02 24,2 C -4,0 C -4,1 C 69 % 0 % 1013 hPa 0,0 l/m 5,9 km/h (2 Bft)
05.03.2010 23:05 24,1 C -3,9 C -4,0 C 69 % 0 % 1013 hPa 0,0 l/m 7,5 km/h (2 Bft)
05.03.2010 23:08 24,1 C -3,8 C -3,8 C 69 % 0 % 1013 hPa 0,0 l/m 7,6 km/h (2 Bft)
05.03.2010 23:11 24,1 C -3,7 C -3,7 C 69 % 0 % 1013 hPa 0,0 l/m 5,7 km/h (1 Bft)
05.03.2010 23:14 24,1 C -3,7 C -3,7 C 67 % 0 % 1013 hPa 0,0 l/m 9,2 km/h (2 Bft)
05.03.2010 23:17 24,1 C -3,7 C -3,6 C 67 % 0 % 1013 hPa 0,0 l/m 8,1 km/h (2 Bft)
05.03.2010 23:20 24,1 C -3,7 C -3,6 C 67 % 0 % 1013 hPa 0,0 l/m 8,9 km/h (2 Bft)
05.03.2010 23:23 24,1 C -3,7 C -3,6 C 67 % 0 % 1013 hPa 0,0 l/m 8,9 km/h (2 Bft)
05.03.2010 23:26 24,1 C -3,5 C -3,6 C 67 % 0 % 1013 hPa 0,0 l/m 5,7 km/h (1 Bft)
05.03.2010 23:29 24,1 C -3,4 C -3,4 C 67 % 0 % 1013 hPa 0,0 l/m 6,1 km/h (2 Bft)
05.03.2010 23:32 24,1 C -3,4 C -3,4 C 67 % 0 % 1013 hPa 0,0 l/m 6,4 km/h (2 Bft)
05.03.2010 23:35 24,1 C -3,4 C -3,4 C 67 % 0 % 1013 hPa 0,0 l/m 6,7 km/h (2 Bft)
05.03.2010 23:38 24,1 C -3,4 C -3,4 C 67 % 0 % 1013 hPa 0,0 l/m 7,1 km/h (2 Bft)
05.03.2010 23:41 24,1 C -3,4 C -3,4 C 67 % 0 % 1013 hPa 0,0 l/m 7,7 km/h (2 Bft)
05.03.2010 23:44 24,1 C -3,4 C -3,4 C 64 % 0 % 1013 hPa 0,0 l/m 9,4 km/h (2 Bft)
05.03.2010 23:47 24,1 C -3,4 C -3,4 C 64 % 0 % 1013 hPa 0,0 l/m 13,6 km/h (3 Bft)
05.03.2010 23:50 24,1 C -3,4 C -3,5 C 64 % 0 % 1013 hPa 0,0 l/m 13,6 km/h (3 Bft)
05.03.2010 23:53 24,1 C -3,3 C -3,5 C 64 % 0 % 1013 hPa 0,0 l/m 8,9 km/h (2 Bft)
05.03.2010 23:56 24,1 C -3,3 C -3,5 C 64 % 0 % 1013 hPa 0,0 l/m 4,7 km/h (1 Bft)
05.03.2010 23:59 24,1 C -3,4 C -3,5 C 65 % 0 % 1013 hPa 0,0 l/m 4,7 km/h (1 Bft)
_ Min-Zeit 07:08 22:41 21:50 12:14 - 00:01 - 05:20
Minimum _ 20,5 C -4,0 C -5,0 C 52 % - 1010 hPa - 0,0 km/h (0 Bft)
_ Max-Zeit 21:29 00:01 11:17 04:56 00:01 18:44 00:01 12:14
Maximum _ 24,9 C 0,1 C 11,8 C 77 % 0 % 1015 hPa 0,0 l/m 41,5 km/h
NW (6 Bft)
Durchschnitt _ 22,8 C -2,2 C -0,9 C 67 % #0 min. 1013 hPa #0,0 l/m 16,7 km/h (3 Bft)